20040123,000012,1486634,35.795167,-122.551333,12.551,33.142,NaN,NaN
20040123,000042,1486664,35.795833,-122.550000,12.543,33.142,NaN,NaN
20040123,000112,1486694,35.796667,-122.548667,12.538,33.143,NaN,NaN
20040123,000142,1486724,35.797333,-122.547333,12.531,33.144,NaN,NaN
20040123,000212,1486754,35.798000,-122.546000,12.524,33.145,NaN,NaN
20040123,000242,1486784,35.798667,-122.544667,12.520,33.147,NaN,NaN
20040123,000312,1486814,35.799333,-122.543333,12.515,33.146,NaN,NaN
20040123,000342,1486844,35.800000,-122.542000,12.508,33.148,NaN,NaN
20040123,000412,1486874,35.800833,-122.540667,12.501,33.147,NaN,NaN
20040123,000442,1486904,35.801500,-122.539333,12.551,33.141,NaN,NaN
20040123,000512,1486934,35.802167,-122.538000,12.621,33.135,NaN,NaN
20040123,000542,1486964,35.803000,-122.536833,12.648,33.136,NaN,NaN
20040123,000612,1486994,35.803667,-122.535500,12.673,33.135,NaN,NaN
20040123,000642,1487024,35.804333,-122.534000,12.690,33.133,NaN,NaN
20040123,000712,1487054,35.805000,-122.532833,12.707,33.131,NaN,NaN
20040123,000742,1487084,35.805833,-122.531500,12.721,33.130,NaN,NaN
20040123,000812,1487114,35.806500,-122.530333,12.738,33.128,NaN,NaN
20040123,000842,1487144,35.807167,-122.529000,12.751,33.127,NaN,NaN
20040123,000912,1487174,35.808000,-122.527667,12.764,33.126,NaN,NaN
20040123,000942,1487204,35.808667,-122.526333,12.775,33.125,NaN,NaN
20040123,001012,1487234,35.809333,-122.525000,12.778,33.125,NaN,NaN
20040123,001042,1487264,35.810167,-122.523833,12.777,33.125,NaN,NaN
20040123,001112,1487294,35.810833,-122.522500,12.776,33.125,NaN,NaN
20040123,001142,1487324,35.811500,-122.521167,12.776,33.125,NaN,NaN
20040123,001212,1487354,35.812333,-122.520000,12.775,33.126,NaN,NaN
20040123,001242,1487384,35.813000,-122.518667,12.768,33.126,NaN,NaN
20040123,001312,1487414,35.813833,-122.517333,12.764,33.125,NaN,NaN
20040123,001342,1487444,35.814500,-122.516167,12.760,33.126,NaN,NaN
20040123,001412,1487474,35.815167,-122.514833,12.757,33.126,NaN,NaN
20040123,001442,1487504,35.816000,-122.513500,12.754,33.127,NaN,NaN
20040123,001512,1487534,35.816667,-122.512167,12.747,33.127,NaN,NaN
20040123,001542,1487564,35.817333,-122.511000,12.735,33.127,NaN,NaN
20040123,001612,1487594,35.818000,-122.509667,12.720,33.130,NaN,NaN
20040123,001642,1487624,35.818667,-122.508333,12.770,33.118,NaN,NaN
20040123,001712,1487654,35.819333,-122.507000,12.802,33.117,NaN,NaN
20040123,001742,1487684,35.820000,-122.505667,12.802,33.116,NaN,NaN
20040123,001812,1487714,35.820833,-122.504333,12.827,33.113,NaN,NaN
20040123,001842,1487744,35.821333,-122.503000,12.816,33.114,NaN,NaN
20040123,001912,1487774,35.822000,-122.501667,12.832,33.110,NaN,NaN
20040123,001942,1487804,35.822667,-122.500333,12.847,33.107,NaN,NaN
20040123,002012,1487834,35.823333,-122.499000,12.844,33.109,NaN,NaN
20040123,002042,1487864,35.824000,-122.497667,12.843,33.108,NaN,NaN
20040123,002112,1487894,35.824667,-122.496333,12.852,33.105,NaN,NaN
20040123,002142,1487924,35.825167,-122.495000,12.875,33.101,NaN,NaN
20040123,002212,1487954,35.825833,-122.493667,12.885,33.101,NaN,NaN
20040123,002242,1487984,35.826500,-122.492333,12.891,33.100,NaN,NaN
20040123,002312,1488014,35.827167,-122.491000,12.897,33.099,NaN,NaN
20040123,002342,1488044,35.827833,-122.489667,12.898,33.100,NaN,NaN
20040123,002412,1488074,35.828333,-122.488333,12.902,33.098,NaN,NaN
20040123,002442,1488104,35.829000,-122.487000,12.905,33.098,NaN,NaN
20040123,002512,1488134,35.829500,-122.485667,12.903,33.100,NaN,NaN
20040123,002542,1488164,35.830167,-122.484333,12.903,33.100,NaN,NaN
20040123,002612,1488194,35.830833,-122.483000,12.903,33.100,NaN,NaN
20040123,002642,1488224,35.831500,-122.481667,12.904,33.100,NaN,NaN
20040123,002712,1488254,35.832167,-122.480333,12.913,33.100,NaN,NaN
20040123,002742,1488284,35.832667,-122.479000,12.918,33.099,NaN,NaN
20040123,002812,1488314,35.833333,-122.477667,12.915,33.100,NaN,NaN
20040123,002842,1488344,35.833833,-122.476333,12.909,33.102,NaN,NaN
20040123,002912,1488374,35.834500,-122.475000,12.904,33.105,NaN,NaN
20040123,002942,1488404,35.835167,-122.473500,12.896,33.104,NaN,NaN
20040123,003012,1488434,35.835667,-122.472167,12.885,33.107,NaN,NaN
20040123,003042,1488464,35.836333,-122.470833,12.873,33.109,NaN,NaN
20040123,003112,1488494,35.837000,-122.469500,12.855,33.114,NaN,NaN
20040123,003142,1488524,35.837667,-122.468167,12.838,33.115,NaN,NaN
20040123,003212,1488554,35.838333,-122.466833,12.815,33.121,NaN,NaN
20040123,003242,1488584,35.838833,-122.465500,12.798,33.122,NaN,NaN
20040123,003312,1488614,35.839500,-122.464000,12.782,33.124,NaN,NaN
20040123,003342,1488644,35.840167,-122.462667,12.773,33.124,NaN,NaN
20040123,003412,1488674,35.840667,-122.461333,12.768,33.123,NaN,NaN
20040123,003442,1488704,35.841500,-122.460000,12.764,33.125,NaN,NaN
20040123,003512,1488734,35.842000,-122.458667,12.762,33.124,NaN,NaN
20040123,003542,1488764,35.842667,-122.457333,12.763,33.123,NaN,NaN
20040123,003612,1488794,35.843333,-122.456000,12.773,33.122,NaN,NaN
20040123,003642,1488824,35.844000,-122.454667,12.803,33.118,NaN,NaN
20040123,003712,1488854,35.844500,-122.453333,12.893,33.100,NaN,NaN
20040123,003742,1488884,35.845167,-122.452000,12.956,33.092,NaN,NaN
20040123,003812,1488914,35.845833,-122.450667,12.985,33.088,NaN,NaN
20040123,003842,1488944,35.846500,-122.449333,13.001,33.086,NaN,NaN
20040123,003912,1488974,35.847000,-122.448167,13.004,33.085,NaN,NaN
20040123,003942,1489004,35.847667,-122.446833,13.002,33.085,NaN,NaN
20040123,004012,1489034,35.848333,-122.445500,12.993,33.086,NaN,NaN
20040123,004042,1489064,35.848833,-122.444167,12.975,33.087,NaN,NaN
20040123,004112,1489094,35.849500,-122.442833,12.957,33.091,NaN,NaN
20040123,004142,1489124,35.850167,-122.441500,12.933,33.096,NaN,NaN
20040123,004212,1489154,35.850833,-122.440167,12.911,33.100,NaN,NaN
20040123,004242,1489184,35.851333,-122.438833,12.882,33.108,NaN,NaN
20040123,004312,1489214,35.852000,-122.437500,12.869,33.107,NaN,NaN
20040123,004342,1489244,35.852667,-122.436333,12.864,33.107,NaN,NaN
20040123,004412,1489274,35.853167,-122.435000,12.863,33.107,NaN,NaN
20040123,004442,1489304,35.853833,-122.433667,12.865,33.106,NaN,NaN
20040123,004512,1489334,35.854500,-122.432333,12.866,33.105,NaN,NaN
20040123,004542,1489364,35.855000,-122.431167,12.867,33.105,NaN,NaN
20040123,004612,1489394,35.855667,-122.429833,12.891,33.100,NaN,NaN
20040123,004642,1489424,35.856333,-122.428500,12.933,33.093,NaN,NaN
20040123,004712,1489454,35.857000,-122.427167,12.957,33.090,NaN,NaN
20040123,004742,1489484,35.857500,-122.426000,12.961,33.090,NaN,NaN
20040123,004812,1489514,35.858167,-122.424667,12.957,33.091,NaN,NaN
20040123,004842,1489544,35.858833,-122.423333,12.946,33.093,NaN,NaN
20040123,004912,1489574,35.859333,-122.422000,12.926,33.097,NaN,NaN
20040123,004942,1489604,35.860000,-122.420833,12.894,33.102,NaN,NaN
20040123,005012,1489634,35.860667,-122.419500,12.864,33.107,NaN,NaN
20040123,005042,1489664,35.861333,-122.418167,12.816,33.111,NaN,NaN
20040123,005112,1489694,35.861833,-122.416833,12.791,33.111,NaN,NaN
20040123,005142,1489724,35.862500,-122.415667,12.770,33.110,NaN,NaN
20040123,005212,1489754,35.863000,-122.414333,12.755,33.106,NaN,NaN
20040123,005242,1489784,35.863667,-122.413000,12.743,33.104,NaN,NaN
20040123,005312,1489814,35.864167,-122.411667,12.738,33.102,NaN,NaN
20040123,005342,1489844,35.864833,-122.410500,12.730,33.101,NaN,NaN
20040123,005412,1489874,35.865333,-122.409167,12.723,33.100,NaN,NaN
20040123,005442,1489904,35.866000,-122.407833,12.717,33.099,NaN,NaN
20040123,005512,1489934,35.866500,-122.406500,12.713,33.098,NaN,NaN
20040123,005542,1489964,35.867167,-122.405167,12.709,33.100,NaN,NaN
20040123,005612,1489994,35.867667,-122.403833,12.708,33.099,NaN,NaN
20040123,005642,1490024,35.868167,-122.402500,12.707,33.099,NaN,NaN
20040123,005712,1490054,35.868833,-122.401167,12.709,33.099,NaN,NaN
20040123,005742,1490084,35.869333,-122.400000,12.712,33.100,NaN,NaN
20040123,005812,1490114,35.870000,-122.398667,12.716,33.099,NaN,NaN
20040123,005842,1490144,35.870500,-122.397333,12.727,33.097,NaN,NaN
20040123,005912,1490174,35.871000,-122.396000,12.745,33.095,NaN,NaN
20040123,005942,1490204,35.871667,-122.394667,12.772,33.095,NaN,NaN
20040123,010012,1490234,35.872167,-122.393333,12.802,33.095,NaN,NaN
20040123,010042,1490264,35.872667,-122.392167,12.831,33.095,NaN,NaN
20040123,010112,1490294,35.873167,-122.390833,12.854,33.095,NaN,NaN
20040123,010142,1490324,35.873667,-122.389500,12.877,33.094,NaN,NaN
20040123,010212,1490354,35.874000,-122.388000,12.896,33.092,NaN,NaN
20040123,010242,1490384,35.874500,-122.386667,12.915,33.092,NaN,NaN
20040123,010312,1490414,35.874833,-122.385333,12.923,33.092,NaN,NaN
20040123,010342,1490444,35.875333,-122.384000,12.934,33.091,NaN,NaN
20040123,010412,1490474,35.875667,-122.382500,12.937,33.091,NaN,NaN
20040123,010442,1490504,35.876167,-122.381167,12.940,33.090,NaN,NaN
20040123,010512,1490534,35.876667,-122.379667,12.938,33.091,NaN,NaN
20040123,010542,1490564,35.877000,-122.378333,12.936,33.091,NaN,NaN
20040123,010612,1490594,35.877500,-122.376833,12.933,33.092,NaN,NaN
20040123,010642,1490624,35.878000,-122.375500,12.927,33.093,NaN,NaN
20040123,010712,1490654,35.878333,-122.374167,12.916,33.093,NaN,NaN
20040123,010742,1490684,35.878833,-122.372667,12.904,33.096,NaN,NaN
20040123,010812,1490714,35.879333,-122.371333,12.887,33.096,NaN,NaN
20040123,010842,1490744,35.879667,-122.369833,12.876,33.098,NaN,NaN
20040123,010912,1490774,35.880000,-122.368500,12.870,33.098,NaN,NaN
20040123,010942,1490804,35.880333,-122.367000,12.864,33.098,NaN,NaN
20040123,011012,1490834,35.880667,-122.366000,12.844,33.102,NaN,NaN
20040123,011042,1490864,35.881000,-122.365333,12.806,33.106,NaN,NaN
20040123,011112,1490894,35.881167,-122.365333,12.777,33.106,NaN,NaN
20040123,011142,1490924,35.881167,-122.365167,12.763,33.107,NaN,NaN
20040123,011212,1490954,35.881167,-122.365167,12.759,33.105,NaN,NaN
20040123,011242,1490984,35.881167,-122.365167,12.759,33.104,NaN,NaN
20040123,011312,1491014,35.881333,-122.365167,12.757,33.105,NaN,NaN
20040123,011342,1491044,35.881333,-122.365167,12.757,33.105,NaN,NaN
20040123,011412,1491074,35.881333,-122.365167,12.756,33.105,NaN,NaN
20040123,011442,1491104,35.881167,-122.365000,12.755,33.105,NaN,NaN
20040123,011512,1491134,35.881167,-122.365000,12.752,33.105,NaN,NaN
20040123,011542,1491164,35.881167,-122.365000,12.753,33.105,NaN,NaN
20040123,011612,1491194,35.881167,-122.365167,12.753,33.103,NaN,NaN
20040123,011642,1491224,35.881167,-122.365167,12.755,33.104,NaN,NaN
20040123,011712,1491254,35.881000,-122.365333,12.757,33.104,NaN,NaN
20040123,011742,1491284,35.881000,-122.365333,12.757,33.104,NaN,NaN
20040123,011812,1491314,35.881000,-122.365500,12.757,33.104,NaN,NaN
20040123,011842,1491344,35.880833,-122.365500,12.759,33.104,NaN,NaN
20040123,011912,1491374,35.880833,-122.365667,12.760,33.104,NaN,NaN
20040123,011942,1491404,35.880833,-122.365833,12.756,33.105,NaN,NaN
20040123,012012,1491434,35.880667,-122.365833,12.753,33.105,NaN,NaN
20040123,012042,1491464,35.880667,-122.365833,12.752,33.106,NaN,NaN
20040123,012112,1491494,35.880667,-122.365833,12.751,33.105,NaN,NaN
20040123,012142,1491524,35.880667,-122.365833,12.751,33.106,NaN,NaN
20040123,012212,1491554,35.880667,-122.365833,12.750,33.105,NaN,NaN
20040123,012242,1491584,35.880667,-122.366000,12.753,33.104,NaN,NaN
20040123,012312,1491614,35.880667,-122.366000,12.754,33.104,NaN,NaN
20040123,012342,1491644,35.880500,-122.366000,12.753,33.104,NaN,NaN
20040123,012412,1491674,35.880500,-122.366167,12.752,33.105,NaN,NaN
20040123,012442,1491704,35.880500,-122.366167,12.753,33.105,NaN,NaN
20040123,012512,1491734,35.880500,-122.366167,12.753,33.105,NaN,NaN
20040123,012542,1491764,35.880500,-122.366333,12.750,33.104,NaN,NaN
20040123,012612,1491794,35.880333,-122.366333,12.746,33.105,NaN,NaN
20040123,012642,1491824,35.880333,-122.366333,12.745,33.105,NaN,NaN
20040123,012712,1491854,35.880333,-122.366333,12.745,33.105,NaN,NaN
20040123,012742,1491884,35.880333,-122.366333,12.747,33.105,NaN,NaN
20040123,012812,1491914,35.880333,-122.366500,12.752,33.104,NaN,NaN
20040123,012842,1491944,35.880167,-122.366500,12.755,33.105,NaN,NaN
20040123,012912,1491974,35.880000,-122.366500,12.757,33.105,NaN,NaN
20040123,012942,1492004,35.880000,-122.366500,12.754,33.106,NaN,NaN
20040123,013012,1492034,35.880000,-122.366500,12.752,33.106,NaN,NaN
20040123,013042,1492064,35.880000,-122.366333,12.752,33.106,NaN,NaN
20040123,013112,1492094,35.880000,-122.366333,12.752,33.106,NaN,NaN
20040123,013142,1492124,35.880000,-122.366333,12.751,33.106,NaN,NaN
20040123,013212,1492154,35.880000,-122.366333,12.748,33.105,NaN,NaN
20040123,013242,1492184,35.880000,-122.366333,12.745,33.104,NaN,NaN
20040123,013312,1492214,35.880000,-122.366333,12.743,33.105,NaN,NaN
20040123,013342,1492244,35.880000,-122.366333,12.745,33.105,NaN,NaN
20040123,013412,1492274,35.880000,-122.366333,12.749,33.105,NaN,NaN
20040123,013442,1492304,35.879833,-122.366333,12.748,33.105,NaN,NaN
20040123,013512,1492334,35.879833,-122.366167,12.749,33.106,NaN,NaN
20040123,013542,1492364,35.879833,-122.366167,12.751,33.105,NaN,NaN
20040123,013612,1492394,35.879667,-122.366000,12.750,33.105,NaN,NaN
20040123,013641,1492423,35.879667,-122.366000,12.749,33.106,NaN,NaN
20040123,013711,1492453,35.879667,-122.365833,12.745,33.106,NaN,NaN
20040123,013741,1492483,35.879667,-122.365833,12.746,33.106,NaN,NaN
20040123,013811,1492513,35.879667,-122.365833,12.748,33.106,NaN,NaN
20040123,013841,1492543,35.879667,-122.365667,12.749,33.106,NaN,NaN
20040123,013911,1492573,35.879667,-122.365667,12.751,33.106,NaN,NaN
20040123,013941,1492603,35.879667,-122.365667,12.750,33.107,NaN,NaN
20040123,014011,1492633,35.879667,-122.365500,12.751,33.106,NaN,NaN
20040123,014041,1492663,35.879500,-122.365500,12.754,33.106,NaN,NaN
20040123,014111,1492693,35.879500,-122.365500,12.753,33.106,NaN,NaN
20040123,014141,1492723,35.879500,-122.365500,12.751,33.107,NaN,NaN
20040123,014211,1492753,35.879500,-122.365500,12.750,33.107,NaN,NaN
20040123,014241,1492783,35.879500,-122.365500,12.748,33.107,NaN,NaN
20040123,014311,1492813,35.879500,-122.365667,12.744,33.107,NaN,NaN
20040123,014341,1492843,35.879500,-122.365667,12.745,33.107,NaN,NaN
20040123,014411,1492873,35.879667,-122.365667,12.744,33.106,NaN,NaN
20040123,014441,1492903,35.879667,-122.365833,12.743,33.107,NaN,NaN
20040123,014511,1492933,35.879833,-122.366000,12.744,33.105,NaN,NaN
20040123,014541,1492963,35.879833,-122.366167,12.745,33.106,NaN,NaN
20040123,014611,1492993,35.879833,-122.366167,12.749,33.106,NaN,NaN
20040123,014641,1493023,35.879667,-122.366333,12.750,33.106,NaN,NaN
20040123,014711,1493053,35.879500,-122.366500,12.753,33.106,NaN,NaN
20040123,014741,1493083,35.879333,-122.366500,12.753,33.106,NaN,NaN
20040123,014811,1493113,35.879167,-122.366500,12.755,33.107,NaN,NaN
20040123,014841,1493143,35.879000,-122.366500,12.759,33.106,NaN,NaN
20040123,014911,1493173,35.878833,-122.366500,12.757,33.107,NaN,NaN
20040123,014941,1493203,35.878833,-122.366500,12.751,33.108,NaN,NaN
20040123,015011,1493233,35.878833,-122.366500,12.747,33.107,NaN,NaN
20040123,015041,1493263,35.878833,-122.366500,12.746,33.107,NaN,NaN
20040123,015111,1493293,35.878833,-122.366500,12.745,33.107,NaN,NaN
20040123,015141,1493323,35.878833,-122.366333,12.744,33.106,NaN,NaN
20040123,015211,1493353,35.878667,-122.366333,12.745,33.106,NaN,NaN
20040123,015241,1493383,35.878833,-122.366333,12.749,33.107,NaN,NaN
20040123,015311,1493413,35.878667,-122.366333,12.750,33.107,NaN,NaN
20040123,015341,1493443,35.878667,-122.366500,12.752,33.107,NaN,NaN
20040123,015411,1493473,35.878500,-122.366500,12.748,33.108,NaN,NaN
20040123,015441,1493503,35.878500,-122.366500,12.747,33.106,NaN,NaN
20040123,015511,1493533,35.878500,-122.366333,12.744,33.106,NaN,NaN
20040123,015541,1493563,35.878667,-122.366333,12.744,33.106,NaN,NaN
20040123,015611,1493593,35.878667,-122.366333,12.745,33.105,NaN,NaN
20040123,015641,1493623,35.878667,-122.366500,12.743,33.106,NaN,NaN
20040123,015711,1493653,35.878667,-122.366667,12.744,33.106,NaN,NaN
20040123,015741,1493683,35.878500,-122.366833,12.745,33.106,NaN,NaN
20040123,015811,1493713,35.878167,-122.367167,12.748,33.106,NaN,NaN
20040123,015841,1493743,35.878000,-122.367333,12.749,33.107,NaN,NaN
20040123,015911,1493773,35.877833,-122.367667,12.749,33.107,NaN,NaN
20040123,015941,1493803,35.877667,-122.367833,12.748,33.106,NaN,NaN
20040123,020011,1493833,35.877500,-122.368000,12.747,33.107,NaN,NaN
20040123,020041,1493863,35.877333,-122.368333,12.747,33.106,NaN,NaN
20040123,020111,1493893,35.877000,-122.368667,12.749,33.106,NaN,NaN
20040123,020141,1493923,35.877000,-122.369000,12.749,33.106,NaN,NaN
20040123,020211,1493953,35.876667,-122.369167,12.750,33.106,NaN,NaN
20040123,020241,1493983,35.876500,-122.369333,12.750,33.107,NaN,NaN
20040123,020311,1494013,35.876333,-122.369667,12.751,33.105,NaN,NaN
20040123,020341,1494043,35.876167,-122.369833,12.750,33.107,NaN,NaN
20040123,020411,1494073,35.875833,-122.370167,12.752,33.106,NaN,NaN
20040123,020441,1494103,35.875667,-122.370500,12.750,33.106,NaN,NaN
20040123,020511,1494133,35.875500,-122.370833,12.751,33.106,NaN,NaN
20040123,020541,1494163,35.875333,-122.371000,12.755,33.104,NaN,NaN
20040123,020611,1494193,35.875167,-122.371333,12.762,33.104,NaN,NaN
20040123,020641,1494223,35.875000,-122.371667,12.773,33.101,NaN,NaN
20040123,020711,1494253,35.874833,-122.372000,12.780,33.102,NaN,NaN
20040123,020741,1494283,35.874667,-122.372333,12.782,33.101,NaN,NaN
20040123,020811,1494313,35.874500,-122.372500,12.791,33.100,NaN,NaN
20040123,020841,1494343,35.874333,-122.372833,12.803,33.099,NaN,NaN
20040123,020911,1494373,35.874167,-122.373167,12.815,33.098,NaN,NaN
20040123,020941,1494403,35.874000,-122.373333,12.820,33.098,NaN,NaN
20040123,021011,1494433,35.873833,-122.373667,12.825,33.097,NaN,NaN
20040123,021041,1494463,35.873667,-122.374000,12.825,33.097,NaN,NaN
20040123,021111,1494493,35.873500,-122.374167,12.831,33.097,NaN,NaN
20040123,021141,1494523,35.873167,-122.374500,12.834,33.096,NaN,NaN
20040123,021211,1494553,35.873000,-122.374667,12.841,33.095,NaN,NaN
20040123,021241,1494583,35.872833,-122.375000,12.849,33.095,NaN,NaN
20040123,021311,1494613,35.872667,-122.375333,12.854,33.095,NaN,NaN
20040123,021341,1494643,35.872500,-122.375500,12.856,33.093,NaN,NaN
20040123,021411,1494673,35.872167,-122.375833,12.860,33.093,NaN,NaN
20040123,021441,1494703,35.872000,-122.376000,12.862,33.092,NaN,NaN
20040123,021511,1494733,35.871833,-122.376333,12.866,33.092,NaN,NaN
20040123,021541,1494763,35.871667,-122.376500,12.870,33.090,NaN,NaN
20040123,021611,1494793,35.871500,-122.376667,12.870,33.092,NaN,NaN
20040123,021641,1494823,35.871333,-122.376833,12.870,33.092,NaN,NaN
20040123,021711,1494853,35.871000,-122.376833,12.876,33.091,NaN,NaN
20040123,021741,1494883,35.870833,-122.377000,12.881,33.090,NaN,NaN
20040123,021811,1494913,35.870667,-122.377000,12.886,33.090,NaN,NaN
20040123,021841,1494943,35.870500,-122.377333,12.892,33.089,NaN,NaN
20040123,021911,1494973,35.870167,-122.377500,12.901,33.086,NaN,NaN
20040123,021941,1495003,35.870000,-122.377833,12.903,33.086,NaN,NaN
20040123,022011,1495033,35.869667,-122.378167,12.908,33.085,NaN,NaN
20040123,022041,1495063,35.869500,-122.378333,12.916,33.085,NaN,NaN
20040123,022111,1495093,35.869167,-122.378833,12.920,33.084,NaN,NaN
20040123,022141,1495123,35.869000,-122.379167,12.924,33.085,NaN,NaN
20040123,022211,1495153,35.868833,-122.379500,12.927,33.084,NaN,NaN
20040123,022241,1495183,35.868667,-122.379833,12.930,33.084,NaN,NaN
20040123,022311,1495213,35.868500,-122.380000,12.928,33.084,NaN,NaN
20040123,022341,1495243,35.868167,-122.380167,12.932,33.084,NaN,NaN
20040123,022411,1495273,35.868167,-122.380500,12.935,33.084,NaN,NaN
20040123,022441,1495303,35.867833,-122.380500,12.937,33.084,NaN,NaN
20040123,022511,1495333,35.867667,-122.380667,12.938,33.084,NaN,NaN
20040123,022541,1495363,35.867500,-122.380833,12.940,33.084,NaN,NaN
20040123,022611,1495393,35.867333,-122.380833,12.943,33.084,NaN,NaN
20040123,022641,1495423,35.867000,-122.381000,12.946,33.084,NaN,NaN
20040123,022711,1495453,35.866833,-122.381000,12.949,33.083,NaN,NaN
20040123,022741,1495483,35.866667,-122.381167,12.951,33.083,NaN,NaN
20040123,022811,1495513,35.866500,-122.381167,12.956,33.082,NaN,NaN
20040123,022841,1495543,35.866167,-122.381333,12.961,33.078,NaN,NaN
20040123,022911,1495573,35.866000,-122.381500,12.966,33.076,NaN,NaN
20040123,022941,1495603,35.865833,-122.381500,12.972,33.075,NaN,NaN
20040123,023011,1495633,35.865667,-122.381667,12.977,33.075,NaN,NaN
20040123,023041,1495663,35.865500,-122.381667,12.981,33.076,NaN,NaN
20040123,023111,1495693,35.865167,-122.381833,12.985,33.075,NaN,NaN
20040123,023141,1495723,35.865000,-122.381833,12.985,33.075,NaN,NaN
20040123,023211,1495753,35.864833,-122.382000,12.989,33.074,NaN,NaN
20040123,023241,1495783,35.864667,-122.382000,12.994,33.074,NaN,NaN
20040123,023311,1495813,35.864500,-122.382167,12.996,33.073,NaN,NaN
20040123,023341,1495843,35.864333,-122.382333,13.004,33.072,NaN,NaN
20040123,023411,1495873,35.864167,-122.382500,13.013,33.071,NaN,NaN
20040123,023441,1495903,35.863833,-122.382667,13.019,33.070,NaN,NaN
20040123,023511,1495933,35.863667,-122.382833,13.024,33.070,NaN,NaN
20040123,023541,1495963,35.863500,-122.383000,13.029,33.071,NaN,NaN
20040123,023611,1495993,35.863333,-122.383000,13.031,33.071,NaN,NaN
20040123,023641,1496023,35.863167,-122.383167,13.033,33.070,NaN,NaN
20040123,023711,1496053,35.863000,-122.383167,13.036,33.071,NaN,NaN
20040123,023741,1496083,35.862667,-122.383333,13.038,33.070,NaN,NaN
20040123,023811,1496113,35.862500,-122.383667,13.041,33.070,NaN,NaN
20040123,023841,1496143,35.862333,-122.384000,13.044,33.070,NaN,NaN
20040123,023911,1496173,35.862167,-122.384167,13.046,33.069,NaN,NaN
20040123,023941,1496203,35.862000,-122.384500,13.046,33.069,NaN,NaN
20040123,024011,1496233,35.861833,-122.384667,13.046,33.068,NaN,NaN
20040123,024041,1496263,35.861667,-122.385000,13.047,33.069,NaN,NaN
20040123,024111,1496293,35.861333,-122.385167,13.050,33.068,NaN,NaN
20040123,024141,1496323,35.861167,-122.385333,13.049,33.068,NaN,NaN
20040123,024211,1496353,35.861000,-122.385500,13.050,33.069,NaN,NaN
20040123,024241,1496383,35.860833,-122.385667,13.052,33.068,NaN,NaN
20040123,024311,1496413,35.860667,-122.385833,13.056,33.068,NaN,NaN
20040123,024341,1496443,35.860500,-122.386167,13.058,33.068,NaN,NaN
20040123,024411,1496473,35.860333,-122.386333,13.061,33.067,NaN,NaN
20040123,024441,1496503,35.860167,-122.386667,13.064,33.067,NaN,NaN
20040123,024511,1496533,35.860167,-122.387000,13.063,33.068,NaN,NaN
20040123,024541,1496563,35.860167,-122.387333,13.064,33.068,NaN,NaN
20040123,024611,1496593,35.860167,-122.387500,13.062,33.069,NaN,NaN
20040123,024641,1496623,35.860333,-122.387500,13.057,33.069,NaN,NaN
20040123,024711,1496653,35.860667,-122.387500,13.055,33.070,NaN,NaN
20040123,024741,1496683,35.861000,-122.387000,13.049,33.070,NaN,NaN
20040123,024811,1496713,35.861333,-122.386167,13.044,33.071,NaN,NaN
20040123,024841,1496743,35.861667,-122.385000,13.036,33.073,NaN,NaN
20040123,024911,1496773,35.862167,-122.383667,13.025,33.075,NaN,NaN
20040123,024941,1496803,35.862500,-122.382333,13.013,33.075,NaN,NaN
20040123,025011,1496833,35.863000,-122.381000,12.999,33.076,NaN,NaN
20040123,025041,1496863,35.863333,-122.379667,12.983,33.079,NaN,NaN
20040123,025111,1496893,35.863833,-122.378333,12.968,33.079,NaN,NaN
20040123,025141,1496923,35.864500,-122.377000,12.946,33.084,NaN,NaN
20040123,025211,1496953,35.865167,-122.375833,12.923,33.086,NaN,NaN
20040123,025241,1496983,35.865833,-122.374667,12.904,33.087,NaN,NaN
20040123,025311,1497013,35.866333,-122.373333,12.884,33.090,NaN,NaN